User: anonymous   Login
Location: Raven Hill Discovery Center
(45.1336°N, 85.0553°W)
Time: 02:47:49
(UTC-05:00)
Language:

Cosmos 1470 - Orbit

View from above orbital plane
View from above orbital plane
View from above satellite
View from above satellite

Ground track
Ground track

The orbit data is extracted from the following two-line orbital elements,

1 14147U 83061A   16342.73265792  .00000221  00000-0  11543-4 0  9995
2 14147  82.4856 226.9443 0015466 194.7824 165.2956 15.10449304575911
Epoch (UTC): 07 December 2016 17:35:01
Eccentricity: 0.0015466
inclination: 82.4856°
perigee height: 524 km
apogee height: 545 km
right ascension of ascending node: 226.9443°
argument of perigee: 194.7824°
revolutions per day: 15.10449304
mean anomaly at epoch: 165.2956°
orbit number at epoch: 57591

The dashed part of the orbit path shows where the satellite is in the earth's shadow,  

DLR